CZ-2D DEB, 31409

Orbit data source: Space-Track

CZ-2D DEB, 31409 is space debris in SSO originally from a launch on Tue, 05 Jul 2005 UTC launched from the Jiuquan Satellite Launch Center, China (JSC). Debris objects in space refer to the collection of defunct objects orbiting the Earth. Examples of debris include non-operational satellites, rocket bodies, and fragments generated from explosions, collisions, or faulty payload assembly.

Loading next visibility...
CZ-2D DEB details
Identifier
31409, 2005-024J
Orbit
SSO
Last TLE update16 hours ago
Origin
Flag of CNCASC (CN / PRC)
ManufacturerUnknown
MissionSpacecraft
Bus & MotorUnknown
MassUnknown
Launch date (UTC)
2005-07-05 (19 years ago)
Launch vehicleUnknown
Launch site
Jiuquan Satellite Launch Center, China (JSC)
Object type
Payload
Rocket body
Debris
Shape & HBRUnknown
Radar Cross SectionSmall (<0.1 m²)

Expand to show TLE details & history

TLE from 16 hours ago
0 CZ-2D DEB
1 31409U 05024J   24360.85446330  .00030655  00000-0  70016-3 0  9992
2 31409  97.2158  27.0975 0005654 336.8686  23.2306 15.42793291 50005
Epoch: 2024-12-25T20:30Z
Definitive object data (Epoch: 2024-12-25T20:30:25.629Z)
Latitude-0.00006°
Longitude-15.35152°
Altitude437.455 km
Speed7.651 km/s
True Right ascension01h 48m 23s
True Declination0° 00' 00"
Sunlit
Object was in daylight at TLE epoch
Visualization TLE readout
Latitude44.86984°
Longitude-21.90131°
Altitude443.354 km
Speed7.651 km/s
Apparent Right ascension00h 29m 34s
Apparent Declination4° 20' 02"
Sunlit
Object is in full shadow
Visualization observer readout
Local Sidereal Time11:37:34
Azimuth341.78° N
Elevation-44.163°
Doppler factor1
Orbital elements
Apogee altitude438.649 km
Perigee altitude430.945 km
Semi-major axis6,812.934 km
Eccentricity0.0005654
Inclination97.2158°
RAAN27.0975°
Arg. of periapsis336.8686°
True anomaly23.25617°
Mean anomaly23.2306°
Eccentric anomaly23.24338°
Mean motion3.8596 °/min
BSTAR0.00070016
Orbital period93.27 mins
Loading maneuver chart data...
Loading historical data...
Loading historical data...
Loading historical data...
Loading historical data...
Loading historical data...
Loading historical data...
Loading historical data...

CZ-2D DEB Visibility forecast

Observer location: undefined°, undefined

Span
Click to sort rows by Start time (UTC) header in descending order
Start Az.
Max El. time (UTC)
Max El. Az.
Max El.
End time (UTC)
End Az.
4 mins2024-12-26 14:12:05.405Z46.46° ENE2024-12-26 14:14:05.405Z89.216° E21.398°2024-12-26 14:16:05.405Z138.788° SSE
5 mins2024-12-27 02:13:05.405Z181.614° SSW2024-12-27 02:15:05.405Z239.461° WSW41.165°2024-12-27 02:18:05.405Z340.155° N
|